#timestamp,LO_Frequency,Hit,StdDev 
1564750815.3,286047003.0,P
1564750835.1,286047003.5,P
1564750855.9,286047003.1,P
1564750875.7,286047003.9,Y
1564750895.5,286046998.6,P
1564750915.4,286046998.9,N
1564750935.2,286046996.7,N
1564750955.0,286046995.8,N
1564750955.9,286046995.8,N
1564750975.8,286046988.5,Y
1564750995.6,286046992.2,P
1564751015.5,286046990.8,P
1564751035.3,286046985.6,P
1564751055.1,286046980.6,Y
1564751075.9,286046996.3,P
1564751095.7,286046997.3,N
1564751115.6,286046996.5,N
1564751135.4,286046996.2,N
1564751155.2,286046987.5,Y
1564751175.1,286046988.3,P
1564751176.0,286046988.3,P
1564751195.8,286046985.9,P
1564751215.6,286046986.5,Y
1564751235.5,286046995.9,P
1564751255.3,286046991.8,N
1564751275.2,286047000.7,N
1564751295.9,286046999.7,N
1564751315.7,286047004.4,N
1564751335.6,286047005.5,N
1564751355.4,286047001.3,N
1564751375.2,286047002.0,N
1564751395.1,286047003.9,N
1564751396.0,286047003.9,N
1564751415.8,286047007.6,N
1564751435.7,286047010.2,N
1564751455.5,286047013.6,N
1564751475.3,286047013.3,N
1564751495.2,286047012.0,N
1564751515.0,286047008.5,N
1564751515.9,286047008.5,N
1564751535.7,286047006.8,N
1564751555.6,286047005.7,N
1564751575.4,286047005.8,N
1564751595.3,286047004.2,N
1564751615.1,286047005.5,N
1564751616.0,286047005.5,N
1564751635.8,286046999.5,N
1564751655.7,286047003.7,N
1564751675.5,286047005.7,N
1564751695.3,286047010.5,N
1564751715.2,286047012.3,N
1564751735.0,286047011.9,N
1564751735.9,286047011.9,N
1564751755.8,286047009.8,N
1564751775.6,286047007.9,N
1564751795.4,286047013.3,Y
1564751815.3,286047008.2,P
1564751835.1,286047007.1,P
1564751855.9,286046999.2,N
1564751875.7,286046997.8,N
1564751895.5,286046992.0,N
1564751915.4,286046992.1,N
1564751935.2,286046985.6,N
1564751955.0,286046986.6,N
1564751955.9,286046986.6,N
1564751975.8,286046988.5,N
1564751995.6,286046994.2,N
1564752015.5,286046997.4,N
1564752035.3,286046993.0,N
1564752055.1,286046986.1,N
1564752075.9,286046987.4,N
1564752095.7,286046986.3,N
1564752115.5,286047000.7,N
1564752135.4,286047002.5,N
1564752155.2,286047000.1,N
1564752175.1,286046999.4,N
1564752176.0,286046999.4,N
1564752195.8,286047002.7,N
1564752215.6,286047003.8,N
1564752235.5,286047001.8,N
1564752255.3,286047002.4,N
1564752275.1,286047000.8,N
1564752295.9,286046998.3,N
1564752315.7,286046997.3,N
1564752335.6,286046996.4,N
1564752355.4,286046993.8,N
1564752375.2,286046999.4,N
1564752395.1,286046998.2,N
1564752396.0,286046998.2,N
1564752415.8,286046997.2,N
1564752435.7,286046986.9,N
1564752455.5,286046981.2,Y
1564752475.3,286046989.7,P
1564752495.2,286046993.9,N
1564752515.0,286046997.7,N
1564752515.9,286046997.7,N
1564752535.7,286046997.8,N
1564752555.6,286047000.7,N
1564752575.4,286047002.6,N
1564752595.3,286047004.0,N
1564752615.1,286046998.6,N
1564752616.0,286046998.6,N
1564752635.8,286046999.3,N
1564752655.7,286046998.1,N
1564752675.5,286046995.1,N
1564752695.3,286046993.0,N
1564752715.2,286046983.0,Y
1564752735.0,286046982.4,P
1564752735.9,286046982.4,N
1564752755.8,286046983.6,N
1564752775.6,286046986.0,N
1564752795.4,286046988.8,N
1564752815.3,286046994.3,N
1564752835.1,286046997.8,N
1564752855.9,286046997.8,N
1564752875.7,286046999.0,N
1564752895.5,286047000.9,N
1564752915.4,286047002.6,N
1564752935.2,286047002.7,N
1564752955.0,286047011.9,N
1564752955.9,286047007.6,N
1564752975.8,286047010.8,N
1564752995.6,286047012.0,N
1564753015.5,286047009.5,N
1564753035.3,286047011.8,N
1564753055.1,286047013.3,N
1564753075.9,286047014.5,N
1564753095.7,286047015.9,N
1564753115.6,286047017.6,N
1564753135.4,286047017.7,N
1564753155.2,286047018.2,N
1564753175.1,286047014.1,N
1564753176.0,286047014.1,N
1564753195.8,286047017.1,N
1564753215.6,286047017.0,N
1564753235.5,286047016.7,N
1564753255.3,286047015.6,N
1564753275.2,286047014.3,N
1564753295.9,286047014.2,N
1564753315.7,286047012.6,N
1564753335.6,286047016.8,N
1564753355.4,286047017.8,N
1564753375.3,286047020.2,N
1564753395.1,286047016.3,N
1564753396.0,286047016.3,N
1564753415.8,286047014.3,N
1564753435.7,286047014.6,Y
1564753455.5,286046999.8,P
1564753475.3,286047001.1,N
1564753495.2,286046999.4,N
1564753515.0,286046999.4,N
1564753515.9,286046999.4,N
1564753535.8,286046996.6,N
1564753555.6,286046999.3,N
1564753575.4,286046999.5,N
1564753595.3,286046998.9,N
1564753615.1,286046996.9,N
1564753635.8,286046995.4,N
1564753655.7,286046995.7,N
1564753675.5,286046995.6,N
1564753695.4,286046993.8,N
1564753715.2,286046993.3,N
1564753735.0,286046996.2,N
1564753735.9,286046996.2,N
1564753755.8,286046993.6,N
1564753775.6,286046991.7,N
1564753795.4,286046990.6,N
1564753815.3,286046991.0,N
1564753835.1,286046991.5,N
1564753855.9,286046989.4,N
1564753875.7,286046988.2,N
1564753895.5,286046988.4,N
1564753915.4,286046988.1,N
1564753935.2,286046989.2,N
1564753955.0,286046991.2,N
1564753955.9,286046991.2,N
1564753975.8,286046988.8,N
1564753995.6,286046989.2,N
1564754015.5,286046989.8,N
1564754035.3,286046990.4,N
1564754055.1,286046992.0,N
1564754075.9,286046992.2,N
1564754095.7,286046994.8,N
1564754115.6,286046993.4,N
1564754135.4,286046993.8,N
1564754155.2,286046997.2,N
1564754175.1,286046997.3,N
1564754176.0,286046997.3,N
1564754195.8,286046997.6,N
1564754215.6,286046993.7,N
1564754235.5,286046995.0,N
1564754255.3,286046996.6,N
1564754275.2,286046997.1,N
1564754295.9,286047001.2,N
1564754315.7,286047001.5,N
1564754335.6,286047004.3,N
1564754355.4,286047001.9,N
1564754375.3,286047001.9,N
1564754395.1,286047005.7,N
1564754396.0,286047005.7,N
